TimeCST,TemperatureF,Dew PointF,Humidity,Sea Level PressureIn,VisibilityMPH,Wind Direction,Wind SpeedMPH,Gust SpeedMPH,PrecipitationIn,Events,Conditions,WindDirDegrees,DateUTC
12:16 AM,12.2,10.4,92,29.88,10.0,Calm,Calm,-,N/A,,Clear,0,2013-01-08 06:16:00
12:36 AM,10.4,10.4,100,29.88,10.0,Calm,Calm,-,N/A,,Clear,0,2013-01-08 06:36:00
12:56 AM,10.4,8.6,92,29.88,10.0,Calm,Calm,-,N/A,,Clear,0,2013-01-08 06:56:00
1:16 AM,8.6,6.8,92,29.87,10.0,Calm,Calm,-,N/A,,Clear,0,2013-01-08 07:16:00
1:36 AM,6.8,5.0,92,29.89,10.0,Calm,Calm,-,N/A,,Clear,0,2013-01-08 07:36:00
1:56 AM,6.8,3.2,85,29.89,10.0,Calm,Calm,-,N/A,,Clear,0,2013-01-08 07:56:00
2:16 AM,6.8,3.2,85,29.88,10.0,Calm,Calm,-,N/A,,Clear,0,2013-01-08 08:16:00
2:36 AM,6.8,3.2,85,29.88,10.0,Calm,Calm,-,N/A,,Clear,0,2013-01-08 08:36:00
2:56 AM,5.0,3.2,92,29.89,10.0,Calm,Calm,-,N/A,,Clear,0,2013-01-08 08:56:00
3:16 AM,3.2,1.4,92,29.88,10.0,Calm,Calm,-,N/A,,Clear,0,2013-01-08 09:16:00
3:36 AM,3.2,1.4,92,29.88,10.0,Calm,Calm,-,N/A,,Clear,0,2013-01-08 09:36:00
3:56 AM,3.2,1.4,92,29.87,10.0,Calm,Calm,-,N/A,,Clear,0,2013-01-08 09:56:00
4:16 AM,3.2,-0.4,85,29.88,10.0,Calm,Calm,-,N/A,,Clear,0,2013-01-08 10:16:00
4:36 AM,1.4,-0.4,92,29.87,10.0,Calm,Calm,-,N/A,,Clear,0,2013-01-08 10:36:00
4:56 AM,1.4,-0.4,92,29.88,10.0,Calm,Calm,-,N/A,,Clear,0,2013-01-08 10:56:00
5:16 AM,1.4,-2.2,85,29.88,10.0,Calm,Calm,-,N/A,,Clear,0,2013-01-08 11:16:00
5:36 AM,1.4,-2.2,85,29.87,10.0,Calm,Calm,-,N/A,,Clear,0,2013-01-08 11:36:00
5:57 AM,1.4,-2.2,85,29.88,10.0,Calm,Calm,-,N/A,,Clear,0,2013-01-08 11:57:00
6:17 AM,1.4,-2.2,85,29.86,10.0,Calm,Calm,-,N/A,,Clear,0,2013-01-08 12:17:00
6:36 AM,-0.4,-2.2,92,29.86,10.0,Calm,Calm,-,N/A,,Clear,0,2013-01-08 12:36:00
6:56 AM,-0.4,-4.0,85,29.87,10.0,Calm,Calm,-,N/A,,Clear,0,2013-01-08 12:56:00
7:16 AM,-0.4,-2.2,92,29.87,10.0,Calm,Calm,-,N/A,,Clear,0,2013-01-08 13:16:00
7:36 AM,-0.4,-2.2,92,29.86,10.0,Calm,Calm,-,N/A,,Clear,0,2013-01-08 13:36:00
7:56 AM,1.4,-2.2,85,29.88,10.0,SE,3.5,-,N/A,,Clear,140,2013-01-08 13:56:00
8:16 AM,1.4,-0.4,92,29.88,10.0,Calm,Calm,-,N/A,,Clear,0,2013-01-08 14:16:00
8:36 AM,3.2,1.4,92,29.88,10.0,Calm,Calm,-,N/A,,Clear,0,2013-01-08 14:36:00
8:56 AM,6.8,5.0,92,29.88,10.0,Calm,Calm,-,N/A,,Clear,0,2013-01-08 14:56:00
9:16 AM,8.6,6.8,92,29.86,10.0,Calm,Calm,-,N/A,,Clear,0,2013-01-08 15:16:00
9:36 AM,14.0,12.2,93,29.85,10.0,Calm,Calm,-,N/A,,Clear,0,2013-01-08 15:36:00
9:56 AM,15.8,14.0,93,29.85,10.0,Calm,Calm,-,N/A,,Clear,0,2013-01-08 15:56:00
10:16 AM,17.6,15.8,93,29.86,10.0,Calm,Calm,-,N/A,,Clear,0,2013-01-08 16:16:00
10:36 AM,19.4,17.6,93,29.85,10.0,Calm,Calm,-,N/A,,Clear,0,2013-01-08 16:36:00
11:16 AM,23.0,21.2,93,29.84,10.0,SSE,3.5,-,N/A,,Scattered Clouds,150,2013-01-08 17:16:00
11:36 AM,24.8,23.0,93,29.83,10.0,South,6.9,-,N/A,,Clear,170,2013-01-08 17:36:00
11:56 AM,26.6,23.0,86,29.82,10.0,SSE,5.8,-,N/A,,Clear,160,2013-01-08 17:56:00
12:16 PM,26.6,21.2,80,29.79,5.0,SE,5.8,-,N/A,Snow,Light Snow,140,2013-01-08 18:16:00
12:36 PM,26.6,21.2,80,29.78,10.0,SE,5.8,-,N/A,,Scattered Clouds,140,2013-01-08 18:36:00
12:56 PM,28.4,21.2,74,29.76,10.0,Calm,Calm,-,N/A,,Scattered Clouds,0,2013-01-08 18:56:00
1:16 PM,28.4,21.2,74,29.74,10.0,Calm,Calm,-,N/A,,Scattered Clouds,0,2013-01-08 19:16:00
1:36 PM,28.4,21.2,74,29.72,10.0,ESE,4.6,-,N/A,,Scattered Clouds,120,2013-01-08 19:36:00
1:56 PM,28.4,21.2,74,29.70,10.0,ESE,3.5,-,N/A,,Clear,120,2013-01-08 19:56:00
2:16 PM,28.4,21.2,74,29.68,10.0,ESE,4.6,-,N/A,,Scattered Clouds,110,2013-01-08 20:16:00
2:36 PM,30.2,23.0,75,29.66,10.0,ESE,5.8,-,N/A,,Mostly Cloudy,110,2013-01-08 20:36:00
2:56 PM,30.2,23.0,75,29.67,10.0,SSE,4.6,-,N/A,,Scattered Clouds,150,2013-01-08 20:56:00
3:16 PM,30.2,23.0,75,29.71,10.0,SSW,4.6,-,N/A,,Scattered Clouds,200,2013-01-08 21:16:00
3:36 PM,30.2,23.0,75,29.68,10.0,SE,6.9,-,N/A,,Scattered Clouds,140,2013-01-08 21:36:00
3:56 PM,30.2,23.0,75,29.67,10.0,SE,5.8,-,N/A,,Scattered Clouds,140,2013-01-08 21:56:00
4:16 PM,30.2,23.0,75,29.66,10.0,SE,4.6,-,N/A,,Scattered Clouds,140,2013-01-08 22:16:00
4:36 PM,30.2,24.8,80,29.66,10.0,SSE,6.9,-,N/A,,Scattered Clouds,150,2013-01-08 22:36:00
4:56 PM,30.2,24.8,80,29.64,7.0,SE,5.8,-,N/A,Snow,Light Snow,130,2013-01-08 22:56:00
5:16 PM,30.2,24.8,80,29.66,10.0,SSE,6.9,-,N/A,,Scattered Clouds,160,2013-01-08 23:16:00
5:36 PM,30.2,24.8,80,29.66,10.0,South,6.9,-,N/A,,Clear,180,2013-01-08 23:36:00
5:56 PM,30.2,24.8,80,29.66,10.0,South,8.1,-,N/A,,Clear,180,2013-01-08 23:56:00
6:36 PM,30.2,24.8,80,29.65,10.0,SSW,8.1,-,N/A,,Clear,200,2013-01-09 00:36:00
6:56 PM,30.2,24.8,80,29.65,10.0,South,5.8,-,N/A,,Clear,190,2013-01-09 00:56:00
7:16 PM,30.2,24.8,80,29.66,10.0,SSW,6.9,-,N/A,,Clear,210,2013-01-09 01:16:00
7:36 PM,28.4,24.8,86,29.66,10.0,SSW,5.8,-,N/A,,Scattered Clouds,200,2013-01-09 01:36:00
7:56 PM,30.2,24.8,80,29.66,10.0,SW,6.9,-,N/A,,Scattered Clouds,220,2013-01-09 01:56:00
8:16 PM,30.2,24.8,80,29.67,10.0,WSW,8.1,-,N/A,,Scattered Clouds,240,2013-01-09 02:16:00
8:36 PM,30.2,24.8,80,29.67,10.0,WSW,6.9,17.3,N/A,,Mostly Cloudy,240,2013-01-09 02:36:00
8:56 PM,30.2,26.6,86,29.67,10.0,WSW,6.9,-,N/A,,Overcast,240,2013-01-09 02:56:00
9:16 PM,30.2,26.6,86,29.66,10.0,SW,5.8,-,N/A,,Overcast,230,2013-01-09 03:16:00
9:36 PM,28.4,24.8,86,29.67,10.0,WSW,4.6,-,N/A,,Scattered Clouds,240,2013-01-09 03:36:00
9:56 PM,28.4,26.6,93,29.67,10.0,SW,5.8,-,N/A,,Mostly Cloudy,230,2013-01-09 03:56:00
10:16 PM,28.4,24.8,86,29.68,10.0,SW,5.8,-,N/A,,Scattered Clouds,230,2013-01-09 04:16:00
10:36 PM,26.6,24.8,93,29.69,10.0,SW,8.1,-,N/A,,Clear,230,2013-01-09 04:36:00
10:56 PM,28.4,24.8,86,29.69,10.0,SW,8.1,-,N/A,,Clear,230,2013-01-09 04:56:00
11:16 PM,28.4,24.8,86,29.70,10.0,WSW,5.8,-,N/A,,Clear,240,2013-01-09 05:16:00
11:36 PM,26.6,24.8,93,29.72,10.0,SW,8.1,-,N/A,,Clear,230,2013-01-09 05:36:00